Погода в Саныяхтахе

Россия / Республика Саха (Якутия)     60˚35′06″N   124˚03′54″E
темп.,
°C
ветер,
м/с
пор.,
м/с
влажн.,
%
обл.,
%
осадки,
мм/ч
давл.,
гПа
погр.,
м
16 января, сб
сб1600:00−25˚ю119899 0.1 102119
03:00−27˚ююз119899 0.1 102019
06:00−28˚зюз1198100 0.0 102119
09:00−28˚з119999 0.1 102319
12:00−27˚зсз2398100 0.1 1025181
15:00−29˚зсз3794100 0.1 1027361
18:00−34˚з2697100 0.0 1030194
21:00−37˚з2298100 0.1 103331
17 января, вс
вс1700:00−39˚з2298100 0.0 103426
03:00−41˚з2298100 0.0 103622
06:00−43˚зюз2297100 0.0 103723
09:00−44˚зюз1297100 0.0 103723
12:00−42˚зюз2395100 0.0 1037162
15:00−40˚зюз2495100 0.0 1036290
18:00−43˚юз2294100 0.0 103750
21:00−42˚юз259598 0.0 1037153
18 января, пн
пн1800:00−40˚юз2595100 0.0 1035235
03:00−39˚юз2595100 0.1 1034233
06:00−38˚юз2496100 0.1 1033243
09:00−37˚ююз2397100 0.1 1031179
12:00−36˚ю2395100 0.1 1029248
15:00−35˚ююв1396100 0.1 1027265
18:00−37˚юв1297100 0.0 102619
21:00−37˚юв2297100 0.1 102475
19 января, вт
вт1900:00−37˚вюв2397100 0.0 1022112
03:00−37˚вюв2494100 0.0 1021134
06:00−38˚юв249293 0.0 1020110
09:00−39˚юв239187 0.0 101955
12:00−36˚юв258872 0.0 1018205
15:00−32˚юв368586 0.0 1017411
18:00−32˚юв2687100 0.0 1018365
21:00−32˚вюв2392100 0.0 1018130
20 января, ср
ср2000:00−31˚юв1198100 0.1 101924
03:00−32˚ю119798 0.1 102019
06:00−33˚ююз129798 0.0 102020
09:00−30˚ю129799 0.1 102228
12:00−29˚ю1296100 0.0 1021102
15:00−29˚юв119682 0.0 102019
18:00−30˚вюв119857 0.0 102019
21:00−29˚вюв129976 0.1 101936